Location: Mentone
(34.5413°N, 85.5351°W)
Time: 03:13:55
(UTC-05:00)

Cosmos 2150 Rocket - Visible Passes

Search period start: 21 August 2014 00:00
Search period end: 31 August 2014 00:00
Orbit: 750 x 809 km, 74.0° (Epoch: 20 August)

Date Brightness Start Highest point End Pass type
(mag) Time Alt. Az. Time Alt. Az. Time Alt. Az.
21 Aug 4.8 04:38:51 10° S 04:44:09 55° ESE 04:49:27 10° NNE visible
22 Aug 5.6 04:06:07 11° SSE 04:10:45 33° E 04:15:34 10° NE visible
23 Aug 6.3 03:34:03 12° SE 03:37:26 20° E 03:41:18 10° NE visible
23 Aug 4.6 05:14:37 12° SW 05:19:22 42° WNW 05:24:31 10° N visible
24 Aug 6.7 03:02:20 10° ESE 03:04:10 12° E 03:06:00 10° ENE visible
24 Aug 4.1 04:42:27 24° SSW 04:45:47 69° WNW 04:51:12 10° NNE visible
25 Aug 4.2 04:10:13 39° S 04:12:16 73° ESE 04:17:42 10° NNE visible
26 Aug 4.9 03:37:55 40° SE 03:38:50 44° ESE 03:43:58 10° NNE visible
26 Aug 5.5 05:18:28 14° W 05:21:19 21° WNW 05:25:18 10° NNW visible
27 Aug 5.7 03:05:33 27° E 03:05:33 27° E 03:09:56 10° NE visible
27 Aug 4.9 04:46:06 28° W 04:47:36 32° WNW 04:52:26 10° N visible
28 Aug 6.5 02:33:08 15° E 02:33:08 15° E 02:35:23 10° ENE visible
28 Aug 4.2 04:13:41 51° W 04:13:58 52° WNW 04:19:15 10° N visible
29 Aug 4.3 03:41:12 66° N 03:41:12 66° N 03:45:51 10° NNE visible
30 Aug 5.3 03:08:41 40° NE 03:08:41 40° NE 03:12:15 10° NNE visible
30 Aug 5.8 04:49:13 16° WNW 04:49:37 16° WNW 04:52:50 10° NNW visible
